Wind_Speed
31 31 32 32 32 32 33 34 33 32 31 30 30 30 31 31 32 30 28 27 26 26 26 25 23 22 22 22 22 23 25 25 26 26 24 23 22 21 20 19 17 15 13
31 32 31 31 31 32 32 33 33 32 31 31 30 30 30 30 31 32 29 26 25 25 25 23 23 22 20 20 20 20 21 23 25 28 27 26 25 24 22 21 19 17 15
32 32 31 31 31 31 30 31 32 31 31 31 29 28 29 29 30 30 30 28 25 25 24 23 23 22 20 19 19 19 19 20 22 24 28 29 29 27 25 24 22 20 18
33 33 32 32 32 31 29 29 29 29 30 31 30 28 27 28 28 28 29 28 26 26 25 25 24 22 21 20 19 19 18 18 20 21 23 27 31 31 29 27 25 24 22
35 34 34 33 33 31 30 29 29 29 29 30 30 30 29 28 28 29 29 29 27 26 25 24 24 23 21 20 20 20 20 20 20 21 22 24 28 31 32 31 29 27 26
37 37 36 35 34 32 31 30 28 27 27 28 29 29 30 30 29 29 29 27 26 25 24 23 23 22 21 20 20 20 20 20 21 21 22 23 25 29 33 34 32 31 29
39 39 38 37 36 35 33 32 29 28 28 28 29 30 30 30 29 29 29 28 26 25 25 22 21 20 20 19 18 19 19 19 20 21 22 24 24 26 31 34 35 34 32
40 41 40 39 38 37 35 34 32 31 30 29 30 29 30 30 30 29 29 29 28 27 26 23 21 21 20 19 18 18 17 17 18 19 21 22 24 24 26 31 34 36 36
42 43 43 42 41 40 38 37 36 34 32 31 29 29 30 30 29 29 29 29 29 29 28 25 23 22 21 19 18 17 17 16 16 17 18 19 21 23 24 25 29 33 36
44 45 45 45 44 43 42 40 39 38 36 34 31 30 30 30 29 28 29 29 29 29 28 26 24 23 22 20 19 18 16 15 15 15 15 16 17 19 21 23 25 27 31
47 46 46 46 45 45 44 43 42 40 39 37 35 32 31 31 31 30 29 28 29 30 29 27 26 25 24 22 20 18 16 14 14 13 13 14 14 15 17 19 21 23 25
46 44 43 41 40 42 42 43 43 43 42 40 39 37 34 33 32 32 30 30 29 30 30 30 28 27 26 24 21 19 17 14 13 12 12 11 12 12 13 15 17 19 21
42 41 40 39 37 37 39 40 40 42 43 43 42 41 39 37 35 33 32 31 31 31 30 31 30 29 28 26 24 21 18 16 14 12 11 10 10 10 11 12 14 16 19
41 41 42 42 41 39 39 40 41 41 42 44 44 44 43 42 39 36 35 33 33 32 32 32 32 31 30 28 26 23 20 18 16 14 12 10 9 9 9 10 12 14 16
42 43 45 46 46 46 45 45 45 45 44 44 45 46 46 45 43 41 39 37 35 34 34 34 34 34 32 30 28 25 23 21 18 16 14 11 10 9 8 9 10 12 14
44 46 48 50 51 52 52 52 51 50 49 48 47 48 48 48 47 45 42 40 38 38 37 37 36 35 34 32 30 28 26 23 21 19 16 14 12 11 10 9 9 11 13
45 47 50 52 54 56 58 58 58 57 55 53 52 51 51 51 51 49 47 44 42 41 41 39 38 37 36 35 33 31 29 26 24 21 19 16 14 13 12 11 10 11 12
47 48 50 52 54 57 59 61 63 62 61 59 57 56 55 54 54 52 51 49 46 44 43 43 41 39 39 38 37 34 31 29 27 24 21 18 16 15 14 13 12 12 12
48 49 51 53 55 57 60 62 65 66 65 64 62 60 59 58 56 56 54 53 51 49 46 45 44 42 41 40 39 36 34 32 29 26 23 20 18 17 16 14 13 13 13
49 50 51 53 55 57 58 60 63 65 66 65 64 63 62 61 59 58 58 57 54 53 51 48 47 46 43 42 41 39 37 34 31 28 26 23 20 18 17 16 14 14 14
49 51 51 52 53 54 54 55 57 59 61 62 62 61 61 62 61 60 60 60 58 55 54 51 49 49 47 44 42 41 39 37 34 31 28 25 21 18 17 16 15 15 15
50 51 50 50 49 48 48 48 49 52 54 55 55 55 57 59 61 61 61 60 60 58 57 54 50 49 48 46 44 43 42 41 37 34 31 26 22 19 18 17 15 15 15
49 49 48 47 45 44 44 43 43 44 46 48 49 50 52 55 57 59 61 61 61 60 58 55 53 49 48 47 47 45 45 43 40 36 33 28 24 21 19 17 16 15 15
47 47 45 43 41 40 39 38 37 37 38 41 44 44 47 49 52 53 56 59 60 59 59 56 53 50 48 46 45 46 46 45 42 38 34 30 26 23 20 18 17 16 16
45 44 42 40 39 37 36 34 31 30 32 36 39 40 42 44 45 47 49 53 56 58 58 58 54 53 49 46 45 45 45 44 43 40 36 32 28 25 22 19 18 16 16
43 42 40 39 36 34 30 26 23 22 26 31 35 37 38 39 42 44 45 46 49 52 55 56 55 53 52 49 45 44 44 44 44 41 38 34 30 27 23 21 18 17 17
Wind_Direction
301 301 298 294 290 288 284 280 275 267 263 262 260 257 256 256 255 256 260 260 259 256 255 250 246 248 247 247 246 243 241 238 235 234 235 235 235 235 235 235 233 231 227
302 303 300 296 296 294 286 280 275 265 262 261 260 260 259 255 253 254 256 256 254 251 250 245 243 241 242 244 243 242 241 238 236 235 233 234 236 236 235 235 233 231 227
300 300 300 297 298 295 289 283 275 267 263 262 261 262 260 257 255 252 252 251 249 246 241 240 238 236 238 239 240 241 240 237 234 234 234 233 234 236 236 236 235 233 230
297 298 297 298 298 296 292 286 280 272 264 261 260 261 261 258 257 251 248 248 246 240 237 236 235 236 238 238 238 238 239 237 235 234 235 235 234 235 236 237 237 236 234
294 295 295 296 297 296 293 288 283 274 265 260 258 259 259 257 256 252 247 246 244 241 235 233 234 235 237 239 239 239 239 239 237 237 237 237 236 236 235 235 237 237 236
292 292 293 293 293 293 291 288 283 278 268 260 257 259 258 256 255 253 249 246 245 242 238 236 234 234 237 239 240 240 241 240 238 238 238 237 239 239 237 236 237 237 237
291 290 290 290 290 289 288 285 284 280 274 268 263 260 258 255 252 251 248 245 243 241 240 239 240 238 236 237 239 240 239 239 238 239 239 237 240 241 240 239 239 238 237
290 289 288 287 286 285 284 281 280 279 275 271 266 263 258 254 251 250 247 245 242 240 240 239 238 236 234 233 235 235 236 237 238 239 239 239 240 242 241 241 242 241 239
288 287 285 284 282 281 280 278 276 275 274 272 270 264 259 255 252 248 246 244 242 240 238 236 232 229 228 227 228 228 230 233 235 238 238 239 240 241 241 244 246 245 242
287 285 283 282 280 278 276 275 274 272 270 270 269 265 261 255 251 247 244 242 240 238 235 231 224 221 220 218 219 223 225 226 230 234 236 238 240 241 242 245 247 245 244
289 285 282 280 279 276 273 271 270 269 267 266 265 264 261 257 252 247 243 240 237 234 230 226 220 216 214 212 211 216 219 220 225 230 233 235 238 241 243 246 247 246 245
290 287 283 280 278 277 274 270 267 265 264 262 261 260 259 257 252 247 242 238 235 231 227 222 217 214 211 209 207 210 214 215 219 224 227 230 234 238 242 246 247 246 246
289 287 284 282 279 276 275 273 270 265 262 259 257 256 255 255 253 248 243 239 236 231 226 220 217 213 210 208 208 209 211 213 216 219 221 225 228 233 238 244 246 246 246
287 285 284 283 280 277 274 273 271 268 263 258 255 252 252 252 251 248 243 239 235 230 226 221 217 214 212 210 209 209 212 214 216 217 218 220 225 233 239 244 247 248 248
285 283 282 281 279 277 274 272 270 267 264 260 255 251 249 248 249 247 243 239 234 230 226 223 219 216 214 212 211 210 214 215 216 215 216 221 228 237 245 249 252 253 251
286 284 282 280 278 276 274 271 268 265 262 260 256 251 248 246 245 244 243 239 234 230 227 224 221 219 217 215 213 213 214 214 216 217 221 227 235 243 251 257 259 260 257
290 287 283 280 278 276 274 271 267 264 261 258 255 251 247 244 242 242 241 240 235 231 228 225 223 221 219 217 215 214 214 215 216 219 224 231 239 248 255 262 267 268 265
293 290 286 283 280 277 274 270 267 264 260 256 253 250 247 243 241 239 239 239 236 232 229 226 224 223 221 218 216 215 214 215 217 220 225 233 240 248 256 264 269 272 271
295 293 290 287 284 280 276 272 268 264 260 256 252 248 245 242 239 237 237 236 236 233 230 227 224 223 222 220 217 215 214 216 217 221 226 233 240 248 254 259 264 269 270
299 297 295 291 287 283 279 274 268 263 259 254 251 246 242 240 238 236 234 234 234 233 231 229 225 223 222 221 218 216 215 216 218 221 226 232 238 246 250 254 258 263 266
305 303 300 296 291 286 281 275 268 262 257 253 250 245 241 237 235 234 233 232 231 231 230 229 226 224 223 221 220 217 216 217 218 221 225 229 234 241 247 251 256 261 264
309 307 304 300 295 289 284 277 270 262 255 250 246 242 237 234 232 231 230 230 230 229 229 228 227 225 223 222 221 219 216 216 218 219 223 226 231 238 244 248 254 260 264
313 311 308 304 298 293 287 281 273 263 253 245 240 236 233 230 228 228 229 229 228 228 228 228 227 226 224 221 221 220 217 216 217 218 221 224 229 236 241 247 253 260 264
317 315 312 308 304 298 292 285 275 262 250 239 233 229 226 224 224 224 226 227 227 227 226 226 226 226 225 221 220 220 218 216 216 218 220 223 227 233 238 245 252 260 265
321 319 317 314 309 304 298 289 276 260 242 231 225 221 217 218 217 219 222 225 225 225 225 224 223 225 225 224 220 219 218 216 216 217 219 222 225 230 235 242 249 258 263
325 324 322 319 315 309 303 293 275 252 232 221 215 212 209 210 211 213 216 220 222 223 223 222 221 221 223 223 222 220 219 217 216 216 218 222 225 229 233 239 245 253 259
Height
5844 5842 5840 5838 5836 5835 5834 5835 5835 5837 5838 5840 5843 5845 5847 5849 5850 5852 5854 5856 5857 5859 5860 5863 5865 5867 5869 5871 5874 5876 5879 5882 5885 5887 5890 5892 5894 5897 5899 5901 5903 5905 5906
5839 5836 5834 5832 5830 5828 5827 5828 5827 5828 5831 5833 5836 5838 5840 5842 5844 5845 5847 5850 5851 5853 5855 5857 5859 5862 5864 5866 5869 5871 5874 5877 5880 5883 5886 5888 5891 5893 5896 5898 5900 5902 5904
5833 5831 5828 5826 5824 5822 5821 5821 5821 5821 5824 5826 5828 5830 5832 5834 5836 5838 5840 5843 5845 5846 5849 5851 5854 5857 5859 5862 5864 5867 5869 5872 5875 5878 5881 5884 5887 5890 5892 5895 5897 5899 5902
5827 5825 5823 5821 5819 5817 5815 5815 5815 5815 5816 5818 5820 5822 5824 5827 5829 5831 5834 5836 5838 5839 5842 5846 5849 5852 5854 5857 5859 5862 5865 5867 5870 5873 5876 5879 5882 5885 5888 5891 5893 5896 5899
5819 5818 5817 5815 5813 5811 5810 5810 5810 5809 5810 5811 5813 5815 5818 5820 5822 5825 5827 5830 5832 5834 5836 5840 5843 5846 5850 5852 5855 5857 5860 5863 5866 5868 5871 5874 5877 5880 5883 5886 5889 5892 5895
5812 5810 5809 5808 5806 5805 5804 5803 5803 5803 5804 5804 5806 5807 5810 5812 5815 5818 5821 5823 5826 5829 5831 5833 5836 5841 5844 5847 5850 5852 5855 5858 5860 5863 5866 5868 5871 5874 5877 5881 5884 5887 5890
5804 5802 5801 5800 5799 5799 5798 5797 5797 5797 5797 5798 5799 5800 5802 5804 5807 5810 5814 5817 5820 5823 5825 5826 5831 5835 5839 5842 5845 5847 5850 5852 5855 5857 5860 5863 5865 5868 5871 5874 5878 5882 5885
5795 5793 5792 5792 5791 5791 5791 5790 5790 5791 5792 5792 5792 5793 5795 5797 5800 5803 5807 5810 5814 5817 5819 5822 5826 5830 5833 5837 5839 5842 5844 5847 5849 5852 5854 5857 5860 5863 5865 5868 5871 5875 5879
5785 5783 5781 5781 5781 5782 5782 5782 5782 5784 5784 5785 5786 5787 5788 5790 5793 5796 5799 5802 5806 5810 5813 5817 5821 5824 5828 5831 5834 5837 5839 5841 5844 5846 5849 5851 5854 5857 5860 5862 5865 5868 5871
5773 5771 5770 5769 5769 5770 5771 5773 5774 5775 5776 5777 5778 5779 5781 5783 5785 5788 5791 5794 5798 5802 5806 5810 5814 5818 5822 5826 5829 5832 5834 5837 5839 5842 5844 5846 5849 5852 5854 5856 5858 5860 5864
5760 5758 5757 5757 5756 5757 5759 5761 5763 5764 5766 5769 5770 5772 5773 5775 5777 5780 5783 5786 5791 5794 5799 5803 5807 5812 5816 5820 5824 5827 5829 5832 5835 5837 5839 5842 5844 5846 5848 5851 5852 5855 5857
5747 5745 5744 5744 5744 5744 5745 5748 5750 5753 5755 5758 5760 5763 5765 5767 5769 5772 5775 5779 5783 5787 5791 5796 5801 5805 5809 5814 5818 5821 5824 5827 5830 5832 5835 5837 5839 5841 5843 5845 5847 5849 5852
5736 5733 5732 5731 5732 5733 5733 5734 5736 5739 5742 5746 5749 5752 5755 5758 5760 5764 5767 5771 5776 5781 5785 5789 5794 5798 5803 5808 5812 5815 5819 5822 5825 5828 5830 5833 5835 5837 5839 5841 5842 5844 5846
5726 5724 5721 5720 5720 5721 5721 5722 5723 5725 5728 5732 5736 5740 5743 5747 5751 5755 5759 5763 5768 5773 5778 5782 5786 5791 5796 5801 5805 5809 5813 5817 5820 5824 5826 5829 5831 5833 5834 5836 5837 5839 5841
5715 5713 5711 5709 5707 5707 5708 5709 5710 5712 5714 5718 5722 5726 5730 5735 5740 5745 5750 5755 5760 5765 5770 5774 5779 5784 5789 5794 5799 5803 5807 5811 5815 5819 5822 5825 5827 5829 5830 5832 5833 5834 5836
5704 5701 5698 5696 5694 5693 5692 5693 5695 5697 5700 5703 5707 5711 5716 5722 5727 5732 5738 5744 5750 5755 5760 5766 5771 5776 5781 5787 5792 5796 5801 5806 5810 5813 5817 5820 5823 5825 5826 5827 5828 5829 5831
5691 5687 5684 5681 5678 5676 5675 5675 5676 5679 5682 5687 5691 5696 5701 5707 5713 5719 5725 5732 5739 5745 5751 5757 5762 5768 5773 5779 5784 5789 5795 5799 5804 5808 5811 5815 5817 5820 5821 5823 5823 5824 5826
5676 5672 5668 5664 5660 5657 5655 5654 5654 5657 5661 5666 5672 5678 5684 5691 5698 5705 5712 5719 5726 5733 5741 5747 5753 5759 5764 5770 5776 5782 5788 5793 5797 5802 5806 5809 5812 5814 5816 5818 5818 5819 5820
5661 5655 5650 5645 5641 5637 5634 5632 5631 5633 5637 5643 5650 5658 5666 5673 5681 5689 5697 5705 5713 5721 5729 5736 5743 5749 5755 5761 5767 5774 5780 5786 5791 5796 5800 5803 5806 5809 5811 5812 5813 5815 5815
5644 5638 5632 5625 5620 5615 5611 5608 5606 5607 5612 5618 5626 5635 5645 5654 5663 5672 5681 5690 5699 5708 5716 5724 5732 5739 5746 5752 5759 5766 5773 5779 5784 5789 5794 5797 5800 5803 5805 5807 5808 5809 5810
5627 5620 5612 5605 5598 5592 5588 5584 5583 5583 5587 5594 5602 5612 5623 5633 5644 5654 5664 5674 5684 5694 5703 5712 5721 5729 5736 5743 5751 5757 5765 5771 5777 5782 5787 5791 5795 5797 5800 5801 5803 5804 5805
5611 5602 5594 5586 5578 5572 5567 5563 5561 5562 5566 5572 5580 5590 5601 5612 5624 5636 5647 5658 5669 5679 5690 5700 5710 5718 5726 5734 5741 5748 5756 5763 5769 5775 5780 5785 5789 5792 5794 5796 5797 5798 5799
5596 5586 5577 5569 5561 5555 5549 5545 5542 5543 5547 5553 5562 5572 5582 5593 5606 5619 5631 5642 5654 5665 5676 5687 5698 5707 5716 5724 5731 5739 5747 5755 5762 5768 5773 5778 5782 5785 5788 5790 5791 5792 5793
5582 5572 5563 5554 5546 5539 5533 5529 5526 5526 5530 5537 5546 5557 5567 5579 5591 5604 5615 5627 5639 5651 5664 5675 5687 5696 5704 5712 5721 5729 5737 5746 5754 5760 5767 5772 5775 5778 5781 5784 5785 5786 5787
5570 5560 5550 5541 5533 5526 5520 5515 5512 5513 5517 5524 5533 5544 5555 5567 5579 5591 5603 5614 5626 5637 5648 5661 5673 5684 5694 5702 5711 5719 5728 5737 5745 5752 5759 5765 5769 5772 5775 5777 5779 5780 5782
5560 5550 5541 5531 5523 5515 5509 5504 5502 5503 5508 5515 5524 5534 5545 5557 5568 5579 5590 5601 5612 5624 5636 5649 5661 5673 5683 5693 5701 5710 5719 5728 5736 5744 5751 5757 5762 5765 5768 5771 5773 5775 5776